Middletown, OH

3:38 PM EDT on March 30, 2017 (GMT -0400)
Hook Field Municipal

Weather History for KMWO - November, 2013

Change the Weather History Date:

Tuesday, November 5, 2013

  Actual Average (KFFO) Record (KFFO)
Temperature  
Mean Temperature 52 °F -  
Max Temperature 60 °F 54 °F 73 °F (2005)
Min Temperature 45 °F 36 °F 24 °F (1998)
Degree Days  
Heating Degree Days 12    
Growing Degree Days 2 (Base 50)    
Moisture  
Dew Point 40 °F    
Average Humidity 65    
Maximum Humidity 86    
Minimum Humidity 42    
Precipitation  
Precipitation 0.00 in - - ()
Sea Level Pressure  
Sea Level Pressure 30.35 in    
Wind  
Wind Speed 2 mph (South)    
Max Wind Speed 10 mph    
Max Gust Speed -    
Visibility 10 miles    
Events Rain    
Averages and records for this station are not official NWS values.
T = Trace of Precipitation, MM = Missing Value Source: NWS Daily Summary

Daily Weather History Graph

Daily Weather History Graph

Search for Another Location

Airport or City:

Trip Planner

Search our weather history database for the weather conditions in past years. The results will help you decide how hot, cold, wet, or windy it might be!

Date:

Astronomy

Nov. 05, 2013 Rise Set
Actual Time 7:10 AM EST 5:31 PM EST
Civil Twilight 6:42 AM EST 5:59 PM EST
Nautical Twilight 6:10 AM EST 6:31 PM EST
Astronomical Twilight 5:38 AM EST 7:02 PM EST
Moon 9:24 AM EST (11/5) 7:32 PM EST (11/5)
Length of Visible Light 11h 16m
Length of Day
10h 20m
Waxing Crescent, 6% of the Moon is Illuminated
Nov 5
Waxing Crescent
Nov 10
First Quarter
Nov 17
Full
Nov 25
Last Quarter
Dec 2
New

Hourly Weather History & Observations

Time (EST) Temp. Dew Point Humidity Pressure Visibility Wind Dir Wind Speed Gust Speed Precip Events Conditions
12:15 AM 52.7 °F 40.3 °F 63% 30.35 in 10.0 mi Calm Calm - N/A   Overcast
12:35 AM 52.7 °F 38.7 °F 59% 30.35 in 10.0 mi Calm Calm - N/A   Overcast
12:55 AM 50.2 °F 43.9 °F 79% 30.36 in 10.0 mi Calm Calm - N/A   Overcast
1:15 AM 48.9 °F 43.2 °F 80% 30.37 in 10.0 mi Calm Calm - N/A   Mostly Cloudy
1:35 AM 50.2 °F 43.0 °F 76% 30.36 in 10.0 mi Calm Calm - N/A   Scattered Clouds
1:55 AM 47.8 °F 42.8 °F 83% 30.36 in 10.0 mi Calm Calm - N/A   Scattered Clouds
2:15 AM 47.7 °F 41.9 °F 80% 30.36 in 10.0 mi Calm Calm - N/A   Mostly Cloudy
2:35 AM 51.3 °F 41.9 °F 70% 30.36 in 10.0 mi Calm Calm - N/A   Overcast
2:55 AM 47.7 °F 42.3 °F 82% 30.36 in 10.0 mi Calm Calm - N/A   Overcast
3:15 AM 47.7 °F 42.4 °F 82% 30.36 in 10.0 mi Calm Calm - N/A   Overcast
3:35 AM 47.7 °F 42.8 °F 83% 30.37 in 10.0 mi Calm Calm - N/A   Overcast
3:55 AM 47.7 °F 42.4 °F 82% 30.38 in 10.0 mi WSW 3.5 mph - N/A Rain Light Rain
4:15 AM 50.0 °F 43.3 °F 78% 30.39 in 10.0 mi SSW 6.9 mph - N/A Rain Rain
4:35 AM 50.5 °F 42.6 °F 74% 30.39 in 10.0 mi SSW 3.5 mph - N/A   Drizzle
4:55 AM 49.1 °F 43.7 °F 82% 30.40 in 10.0 mi Calm Calm - N/A Rain Light Rain
5:15 AM 49.1 °F 43.9 °F 82% 30.40 in 10.0 mi Calm Calm - N/A   Overcast
5:35 AM 49.1 °F 43.7 °F 82% 30.40 in 10.0 mi Calm Calm - N/A   Overcast
5:55 AM 48.4 °F 43.9 °F 84% 30.39 in 10.0 mi Calm Calm - N/A   Overcast
6:15 AM 47.7 °F 43.7 °F 86% 30.38 in 10.0 mi Calm Calm - N/A   Overcast
6:35 AM 47.7 °F 43.7 °F 86% 30.38 in 10.0 mi Calm Calm - N/A   Overcast
6:55 AM 47.7 °F 43.7 °F 86% 30.39 in 10.0 mi Calm Calm - N/A   Overcast
7:15 AM 47.7 °F 43.7 °F 86% 30.39 in 10.0 mi Calm Calm - N/A   Overcast
7:35 AM 48.0 °F 44.1 °F 86% 30.40 in 10.0 mi Calm Calm - N/A   Overcast
7:55 AM 49.1 °F 45.0 °F 86% 30.39 in 7.0 mi Calm Calm - N/A   Overcast
8:15 AM 50.2 °F 46.0 °F 86% 30.42 in 10.0 mi Calm Calm - N/A   Overcast
8:35 AM 51.3 °F 46.4 °F 83% 30.41 in 10.0 mi Calm Calm - N/A   Overcast
8:55 AM 52.7 °F 43.2 °F 70% 30.42 in 10.0 mi Calm Calm - N/A   Mostly Cloudy
9:15 AM 52.7 °F 45.0 °F 75% 30.42 in 10.0 mi Calm Calm - N/A   Mostly Cloudy
9:35 AM 52.7 °F 42.6 °F 69% 30.43 in 10.0 mi Calm Calm - N/A   Mostly Cloudy
9:55 AM 52.7 °F 41.7 °F 66% 30.41 in 10.0 mi Calm Calm - N/A   Mostly Cloudy
10:15 AM 55.4 °F 42.6 °F 62% 30.41 in 10.0 mi SSE 4.6 mph - N/A   Scattered Clouds
10:35 AM 55.4 °F 41.9 °F 60% 30.43 in 10.0 mi SSW 3.5 mph - N/A   Scattered Clouds
10:55 AM 55.4 °F 41.5 °F 60% 30.42 in 10.0 mi South 3.5 mph - N/A   Scattered Clouds
11:15 AM 55.8 °F 38.5 °F 52% 30.43 in 10.0 mi South 5.8 mph - N/A   Clear
11:35 AM 57.7 °F 39.7 °F 51% 30.42 in 10.0 mi SSW 6.9 mph - N/A   Clear
11:55 AM 59.0 °F 37.6 °F 45% 30.41 in 10.0 mi South 8.1 mph - N/A   Clear
12:15 PM 58.8 °F 37.2 °F 45% 30.40 in 10.0 mi SSW 5.8 mph - N/A   Clear
12:35 PM 58.8 °F 37.8 °F 46% 30.40 in 10.0 mi SSW 8.1 mph - N/A   Clear
12:55 PM 57.7 °F 37.6 °F 47% 30.40 in 10.0 mi SSW 8.1 mph - N/A   Clear
1:15 PM 58.6 °F 38.1 °F 46% 30.38 in 10.0 mi South 6.9 mph - N/A   Scattered Clouds
1:35 PM 59.0 °F 37.4 °F 45% 30.37 in 10.0 mi SSW 10.4 mph - N/A   Clear
1:55 PM 59.5 °F 37.2 °F 43% 30.35 in 10.0 mi South 6.9 mph - N/A   Clear
2:15 PM 59.4 °F 38.1 °F 45% 30.35 in 10.0 mi South 6.9 mph - N/A   Clear
2:35 PM 59.0 °F 37.8 °F 45% 30.35 in 10.0 mi SSW 6.9 mph - N/A   Clear
2:55 PM 59.0 °F 37.6 °F 45% 30.34 in 10.0 mi SSW 5.8 mph - N/A   Clear
3:15 PM 60.1 °F 38.5 °F 45% 30.34 in 10.0 mi South 5.8 mph - N/A   Clear
3:35 PM 59.0 °F 37.6 °F 45% 30.34 in 10.0 mi South 6.9 mph - N/A   Clear
3:55 PM 58.3 °F 36.7 °F 45% 30.32 in 10.0 mi South 6.9 mph - N/A   Clear
4:15 PM 59.0 °F 37.2 °F 44% 30.30 in 10.0 mi SSE 8.1 mph - N/A   Clear
4:35 PM 59.0 °F 36.9 °F 44% 30.31 in 10.0 mi South 8.1 mph - N/A   Clear
4:55 PM 59.0 °F 36.1 °F 42% 30.30 in 10.0 mi SSE 5.8 mph - N/A   Clear
5:15 PM 57.7 °F 35.8 °F 44% 30.30 in 10.0 mi SSE 6.9 mph - N/A   Clear
5:35 PM 57.7 °F 36.3 °F 45% 30.30 in 10.0 mi South 4.6 mph - N/A   Clear
5:55 PM 57.7 °F 37.4 °F 47% 30.30 in 10.0 mi South 4.6 mph - N/A   Clear
6:15 PM 57.7 °F 37.0 °F 46% 30.30 in 10.0 mi South 5.8 mph - N/A   Clear
6:35 PM 57.7 °F 36.9 °F 46% 30.30 in 10.0 mi South 8.1 mph - N/A   Clear
6:55 PM 57.7 °F 36.5 °F 45% 30.30 in 10.0 mi South 4.6 mph - N/A   Clear
7:15 PM 57.7 °F 36.0 °F 44% 30.30 in 10.0 mi South 4.6 mph - N/A   Clear
7:35 PM 55.6 °F 35.6 °F 47% 30.30 in 10.0 mi Calm Calm - N/A   Clear
7:55 PM 55.4 °F 36.5 °F 49% 30.30 in 10.0 mi Calm Calm - N/A   Clear
8:15 PM 52.3 °F 42.3 °F 69% 30.30 in 10.0 mi Calm Calm - N/A   Clear
8:35 PM 50.0 °F 42.6 °F 76% 30.30 in 10.0 mi Calm Calm - N/A   Scattered Clouds
8:55 PM 49.6 °F 41.7 °F 74% 30.29 in 10.0 mi Calm Calm - N/A   Clear
9:15 PM 47.7 °F 41.5 °F 79% 30.28 in 10.0 mi Calm Calm - N/A   Clear
9:35 PM 47.7 °F 41.5 °F 79% 30.28 in 10.0 mi Calm Calm - N/A   Clear
9:55 PM 47.7 °F 42.1 °F 81% 30.27 in 10.0 mi Calm Calm - N/A   Clear
10:15 PM 45.5 °F 40.8 °F 84% 30.27 in 10.0 mi Calm Calm - N/A   Clear
10:35 PM 47.7 °F 42.4 °F 82% 30.26 in 10.0 mi Calm Calm - N/A   Clear
10:55 PM 45.9 °F 39.4 °F 78% 30.25 in 10.0 mi Calm Calm - N/A   Clear
11:15 PM 47.7 °F 37.9 °F 69% 30.25 in 10.0 mi Calm Calm - N/A   Clear
11:35 PM 47.7 °F 37.9 °F 69% 30.24 in 10.0 mi Calm Calm - N/A   Clear
11:55 PM 47.7 °F 36.9 °F 66% 30.24 in 10.0 mi Calm Calm - N/A   Clear